This demonstration page uses our WeatherBlox Daily Observations layout. Learn more.

Left ArrowRight Arrow

38.20091, -84.87328

Hourly Observations for April 30, 2022

Temp ( °F °C ) Dew Point ( °F °C ) Humidity (%) Winds ( mph kmh ) Pressure ( in mb ) Visibility ( mi km ) Precip ( " mm )
12:53 am 00:53 Cloudy 64 17.8 46 7.8 52 52 E 5 7 29.98 1015 10 16 0.00 0.00
1:53 am 01:53 Cloudy 63 17.2 47 8.3 56 56 E 6 9 29.97 1015 10 16 0.00 0.00
2:53 am 02:53 Mostly Cloudy 63 17.2 44 6.7 50 50 E 8 13 29.94 1014 10 16 0.00 0.00
3:53 am 03:53 Cloudy 62 16.7 44 6.7 52 52 E 5 7 29.96 1014 10 16 0.00 0.00
4:53 am 04:53 Mostly Cloudy 61 16.1 44 6.7 54 54 NNE 5 7 29.96 1015 10 16 0.00 0.00
5:53 am 05:53 Partly Cloudy 57 13.9 44 6.7 62 62 E 6 9 29.97 1015 10 16 0.00 0.00
6:53 am 06:53 Sunny 57 13.9 45 7.2 64 64 E 7 11 29.99 1016 10 16 0.00 0.00
7:53 am 07:53 Mostly Sunny 58 14.4 47 8.3 67 67 E 6 9 30.01 1016 10 16 0.00 0.00
8:53 am 08:53 Mostly Cloudy 60 15.6 49 9.4 67 67 E 6 9 30.00 1016 10 16 0.00 0.00
9:53 am 09:53 Mostly Sunny 65 18.3 52 11.1 63 63 ESE 5 7 29.98 1015 10 16 0.00 0.00
10:53 am 10:53 Partly Cloudy 70 21.1 54 12.2 57 57 SSE 5 7 29.98 1015 10 16 0.00 0.00
11:53 am 11:53 Cloudy 75 23.9 56 13.3 52 52 SSW 8 13 29.97 1015 10 16 0.00 0.00
12:53 pm 12:53 Mostly Cloudy 75 23.9 57 13.9 54 54 S 8 13 29.96 1015 10 16 0.00 0.00
1:53 pm 13:53 Mostly Sunny 76 24.4 58 14.4 54 54 S 8 13 29.93 1013 10 16 0.00 0.00
2:53 pm 14:53 Sunny 77 25 57 13.9 50 50 S 14 22 29.90 1013 10 16 0.00 0.00
3:53 pm 15:53 Mostly Cloudy 79 26.1 58 14.4 49 49 S 13 20 29.88 1012 10 16 0.00 0.00
4:53 pm 16:53 Cloudy 79 26.1 56 13.3 45 45 S 10 17 29.86 1011 10 16 0.00 0.00
5:53 pm 17:53 Mostly Cloudy 79 26.1 56 13.3 45 45 SSW 15 24 29.85 1011 10 16 0.00 0.00
6:53 pm 18:53 Mostly Cloudy 79 26.1 57 13.9 47 47 S 8 13 29.83 1010 10 16 0.00 0.00
7:53 pm 19:53 Sunny 78 25.6 56 13.3 47 47 S 8 13 29.84 1011 10 16 0.00 0.00
8:53 pm 20:53 Clear 75 23.9 56 13.3 52 52 S 7 11 29.85 1011 10 16 0.00 0.00
9:53 pm 21:53 Clear 74 23.3 56 13.3 54 54 S 8 13 29.86 1011 10 16 0.00 0.00
10:53 pm 22:53 Mostly Cloudy 73 22.8 57 13.9 57 57 S 5 7 29.86 1011 10 16 0.00 0.00
11:53 pm 23:53 Mostly Cloudy 72 22.2 57 13.9 59 59 SSE 10 17 29.83 1010 10 16 0.00 0.00

Powered by AerisWeather